Погода в Старой Кулатке

Россия / Ульяновская область     52°43′49″N   47°37′19″E
темп.,
°C
ветер,
м/с
пор.,
м/с
влажн.,
%
обл.,
%
осадки,
мм/ч
давл.,
гПа
погр.,
м
16 января, вс
вс1601:00−14зсз3594100 0.0 99271
04:00−11з3895100 0.0 994173
07:00−9зсз41091100 0.0 994245
10:00−7зсз389397 0.0 997276
13:00−4сз698881 0.0 999622
16:00−6сз598624 0.0 1001292
19:00−9сз498965 0.0 1004189
22:00−10сз499216 0.0 1007164
17 января, пн
пн1701:00−14з369515 0.0 100963
04:00−16з379967 0.0 101079
07:00−17юз239971 0.0 101140
10:00−15юз3109885 0.0 1010181
13:00−10ююз5149478 0.0 1009392
16:00−10ююз61495100 0.1 1008405
19:00−9ююз71795100 0.1 1006498
22:00−8ююз91794100 0.2 1005624
18 января, вт
вт1801:00−4ююз91794100 0.3 1004774
04:00−3ююз91695100 0.6 1004704
07:00−3ю71596100 0.6 1004661
10:00−3ю71597100 1.3 1004769
13:00−1ююз91596100 0.7 1005920
16:00−1ююз91692100 1.0 1007961
19:00−2ю71796100 0.6 1009952
22:00−2ю61593100 1.1 1011751
19 января, ср
ср1901:00−2ю71596100 0.9 1011771
04:00−1ю61297100 1.4 1012730
07:00−1ююз4898100 0.6 1013536
10:00−3ю2498100 1.3 1015142
13:00−1ююз3597100 0.5 1016392
16:00−1ююв2497100 0.8 1017306
19:00−3ююв1299100 0.3 101846
22:00−5вюв1110093 0.3 101917
20 января, чт
чт2001:00−4юв1198100 0.0 102056
04:00−6всв1198100 0.1 102120
07:00−6в1297100 0.5 102133
10:00−6в2397100 0.8 102280
13:00−5юв3593100 0.2 1023383
16:00−6юв249687 0.4 1023244
19:00−12в119983 0.1 102410
22:00−16всв119994 0.1 10259